Probability
0 0 0 0 0 0 0 0 0 0 0 0 0 0 13 13 16 13 10 16 16 16 10 10 13 13 6 10 3 6 10 13 16 13 10 16 13 10 10 6 10 13 16 16
0 0 0 0 0 0 0 0 0 0 0 0 0 3 6 13 13 13 10 6 16 16 13 13 16 16 13 19 13 10 13 16 19 19 19 13 16 10 13 13 13 13 16 19
0 0 0 0 0 0 0 0 0 0 0 0 0 3 6 13 10 6 3 10 10 16 13 19 16 16 13 13 16 19 10 10 10 16 16 16 13 16 19 16 16 16 23 23
0 0 0 0 0 0 0 0 0 0 0 0 0 0 3 10 10 3 3 3 10 16 16 16 16 13 13 16 13 16 16 10 10 10 19 19 16 16 16 16 16 16 23 29
0 0 0 0 0 0 0 0 0 0 0 0 0 0 0 6 10 6 3 3 10 10 16 19 19 13 16 19 16 13 13 13 10 6 13 16 13 13 16 16 13 13 16 19
0 0 0 0 0 0 0 0 0 0 0 0 0 0 0 3 3 3 3 6 6 10 16 19 16 16 16 13 16 16 10 10 10 10 16 16 13 19 19 16 16 10 16 16
0 0 0 0 0 0 0 0 0 0 0 0 0 0 0 0 0 0 0 3 3 10 16 19 19 19 13 13 19 23 16 10 6 13 16 16 13 16 16 13 13 16 16 10
0 0 0 0 0 0 0 0 0 0 0 0 0 0 0 0 3 6 6 10 6 6 13 16 19 19 19 13 16 19 23 23 16 10 10 16 10 19 16 13 16 16 16 13
0 0 0 0 0 0 0 0 0 0 0 0 0 0 0 0 6 6 6 10 6 6 13 13 16 19 19 19 13 19 16 19 13 13 10 13 13 10 13 16 13 13 19 16
0 0 0 0 0 0 0 0 0 0 0 0 0 0 0 6 6 6 6 6 3 6 10 10 13 13 16 16 13 13 13 10 10 13 16 16 13 16 16 16 23 19 16 16
0 0 0 0 0 0 0 0 0 0 0 0 0 0 0 3 0 6 6 6 3 3 6 10 13 16 16 16 16 16 16 16 16 16 16 19 13 13 16 16 13 13 13 6
0 0 0 0 0 0 0 0 0 0 0 0 0 0 0 0 0 3 6 6 3 3 3 6 13 13 16 19 16 16 16 16 16 16 13 13 13 10 16 10 10 10 13 6
0 0 0 0 0 0 0 0 0 0 0 0 0 0 0 0 3 3 3 6 3 6 6 10 10 10 13 13 16 19 19 16 16 16 16 13 16 13 10 6 10 10 6 3
0 0 0 0 0 0 0 0 0 0 0 0 0 0 0 0 3 3 3 3 3 0 6 13 10 10 13 6 16 19 19 19 23 19 19 19 16 13 10 6 6 3 6 3
0 0 0 0 0 0 0 0 0 0 0 0 0 0 0 3 3 3 0 3 6 10 13 13 6 10 6 10 13 13 19 16 13 10 10 10 10 10 6 3 3 0 3 3
0 0 0 0 0 0 0 0 0 0 0 0 0 0 0 0 3 3 0 3 13 13 13 16 10 13 10 10 6 6 6 6 6 6 6 6 3 3 3 6 6 3 3 3
0 0 0 0 0 0 0 0 0 0 0 0 0 0 0 0 3 3 0 6 10 13 13 19 13 10 10 10 6 3 6 6 6 6 6 3 3 3 3 0 0 0 6 6
0 0 0 0 0 0 0 0 0 0 0 0 0 0 0 0 3 3 0 6 6 13 19 19 16 10 10 6 3 6 6 6 6 6 6 3 3 3 3 0 0 0 0 0
0 0 0 0 0 0 0 0 0 0 0 0 0 0 0 0 3 3 10 6 6 13 13 16 16 13 6 6 10 6 6 6 6 6 6 3 3 3 6 0 0 0 0 0
0 0 0 0 0 0 0 0 0 0 0 0 0 0 0 3 6 3 6 6 6 10 13 16 13 10 6 6 6 6 6 6 10 10 6 3 3 6 6 0 0 0 0 0
0 0 0 0 0 0 0 0 0 0 0 0 0 0 0 3 3 3 6 6 6 6 13 13 13 10 10 6 6 6 6 6 6 10 3 3 6 6 6 0 0 0 0 0
0 0 0 0 0 0 0 0 0 0 0 0 3 3 3 3 6 6 6 6 6 10 10 13 13 10 10 10 10 10 10 13 6 6 6 0 3 3 3 0 0 0 0 0
0 0 0 0 0 0 0 0 0 0 3 3 3 3 6 6 6 6 6 3 3 3 3 6 13 10 10 10 10 10 10 10 6 3 0 3 3 3 3 0 0 0 0 0
0 0 0 0 0 0 0 0 0 3 3 3 3 3 3 3 3 3 3 3 3 0 3 3 6 6 6 6 6 6 6 6 3 0 0 3 3 3 0 0 0 0 0 0
0 0 0 0 0 0 0 0 0 3 3 3 3 6 3 3 3 3 0 0 0 0 3 3 3 10 10 6 6 6 6 6 3 0 0 3 3 3 3 0 0 0 3 3
0 0 0 0 0 0 0 0 0 3 3 3 3 6 0 0 0 0 0 0 0 0 0 0 3 6 10 10 6 6 10 10 6 3 3 3 3 3 3 0 0 0 0 0
Height
5848 5851 5853 5855 5856 5859 5860 5862 5865 5867 5867 5867 5868 5870 5871 5872 5873 5873 5874 5874 5875 5874 5873 5872 5872 5872 5872 5871 5871 5871 5871 5870 5870 5870 5869 5869 5868 5867 5867 5866 5865 5865 5865 5864
5845 5847 5849 5850 5852 5854 5856 5858 5861 5862 5862 5863 5864 5866 5867 5868 5869 5870 5871 5871 5871 5871 5871 5870 5870 5870 5869 5869 5869 5869 5868 5868 5868 5868 5867 5867 5867 5866 5865 5865 5864 5864 5863 5863
5841 5844 5844 5846 5848 5850 5852 5854 5857 5858 5858 5859 5860 5862 5863 5865 5866 5866 5867 5867 5868 5868 5868 5868 5867 5867 5866 5866 5866 5866 5866 5866 5865 5865 5865 5865 5864 5864 5863 5863 5863 5862 5862 5861
5837 5839 5841 5842 5845 5846 5848 5851 5852 5853 5854 5854 5856 5857 5860 5860 5862 5862 5863 5863 5864 5864 5864 5864 5864 5863 5863 5863 5863 5863 5863 5862 5862 5862 5862 5861 5860 5860 5860 5860 5860 5860 5859 5859
5834 5835 5837 5839 5841 5842 5844 5846 5847 5848 5849 5850 5851 5852 5855 5856 5857 5858 5859 5859 5860 5860 5860 5860 5860 5860 5860 5860 5860 5859 5859 5859 5859 5858 5858 5858 5857 5857 5857 5857 5858 5857 5857 5857
5830 5831 5833 5835 5837 5838 5840 5841 5842 5843 5844 5846 5847 5848 5850 5851 5852 5853 5854 5855 5855 5856 5856 5856 5856 5856 5856 5856 5856 5856 5856 5856 5855 5855 5855 5855 5855 5855 5855 5855 5855 5854 5854 5854
5826 5828 5829 5831 5832 5834 5835 5837 5838 5839 5840 5841 5843 5843 5845 5846 5847 5848 5849 5850 5850 5851 5851 5851 5851 5851 5852 5852 5852 5851 5851 5851 5851 5851 5851 5851 5851 5851 5852 5852 5851 5851 5850 5850
5822 5824 5825 5826 5828 5829 5830 5832 5834 5834 5835 5837 5838 5838 5841 5841 5842 5843 5843 5844 5845 5845 5846 5846 5847 5847 5847 5847 5847 5847 5847 5847 5847 5847 5847 5847 5847 5847 5848 5848 5848 5847 5847 5846
5817 5819 5821 5822 5823 5824 5825 5826 5828 5829 5830 5831 5832 5833 5835 5836 5836 5837 5838 5839 5840 5840 5841 5841 5841 5842 5842 5842 5842 5842 5842 5842 5842 5842 5842 5842 5843 5843 5843 5843 5844 5843 5843 5842
5812 5814 5816 5817 5818 5819 5821 5822 5823 5824 5824 5825 5826 5827 5829 5830 5830 5831 5832 5833 5833 5834 5835 5835 5835 5836 5836 5837 5837 5837 5837 5836 5836 5837 5837 5837 5837 5837 5837 5838 5838 5838 5838 5837
5807 5809 5811 5812 5813 5814 5815 5817 5817 5818 5819 5819 5820 5824 5824 5824 5825 5825 5826 5826 5827 5828 5828 5829 5830 5830 5831 5831 5831 5831 5831 5830 5831 5831 5831 5832 5831 5831 5831 5832 5833 5833 5833 5832
5801 5803 5804 5806 5807 5808 5809 5810 5812 5813 5813 5813 5814 5818 5817 5818 5818 5818 5819 5820 5821 5821 5822 5822 5823 5824 5825 5824 5824 5824 5825 5825 5825 5825 5825 5825 5825 5826 5826 5826 5827 5827 5827 5827
5796 5797 5798 5800 5803 5803 5803 5804 5805 5806 5807 5807 5808 5812 5811 5811 5811 5812 5813 5813 5814 5814 5815 5815 5816 5817 5818 5818 5818 5818 5818 5818 5817 5818 5818 5819 5819 5819 5819 5820 5820 5820 5820 5820
5790 5791 5793 5794 5795 5796 5796 5797 5798 5799 5799 5800 5801 5803 5804 5804 5805 5805 5806 5807 5807 5808 5808 5808 5809 5810 5810 5810 5810 5811 5811 5811 5810 5810 5811 5811 5812 5812 5812 5813 5813 5813 5813 5813
5784 5785 5786 5787 5788 5789 5790 5790 5791 5792 5792 5793 5794 5795 5796 5797 5798 5798 5799 5800 5800 5801 5801 5802 5802 5803 5803 5803 5803 5803 5803 5803 5802 5802 5803 5803 5804 5804 5804 5805 5805 5805 5806 5806
5778 5779 5779 5780 5781 5782 5782 5783 5784 5785 5785 5786 5787 5788 5789 5789 5790 5791 5791 5793 5793 5794 5794 5794 5795 5795 5795 5795 5795 5795 5795 5795 5795 5795 5795 5795 5796 5796 5797 5797 5797 5797 5798 5798
5772 5773 5773 5774 5774 5774 5775 5776 5777 5777 5778 5779 5779 5781 5781 5782 5782 5783 5784 5785 5786 5786 5786 5787 5787 5787 5787 5787 5787 5787 5787 5787 5787 5787 5787 5788 5788 5789 5788 5788 5789 5789 5789 5790
5765 5766 5766 5766 5768 5767 5771 5769 5769 5770 5771 5771 5772 5773 5773 5774 5775 5775 5776 5777 5778 5778 5779 5779 5779 5779 5779 5779 5778 5778 5779 5779 5779 5779 5779 5780 5780 5781 5780 5780 5781 5781 5781 5781
5758 5759 5759 5759 5759 5760 5762 5762 5762 5762 5763 5764 5765 5766 5766 5766 5768 5769 5769 5769 5770 5770 5771 5771 5771 5771 5771 5771 5771 5771 5771 5771 5771 5771 5771 5772 5772 5772 5772 5773 5773 5772 5772 5772
5751 5752 5752 5752 5752 5753 5755 5755 5754 5756 5756 5757 5757 5758 5758 5759 5760 5762 5762 5762 5762 5762 5763 5762 5762 5763 5763 5763 5763 5763 5763 5763 5763 5763 5764 5764 5764 5764 5764 5764 5764 5764 5763 5763
5744 5744 5745 5745 5745 5746 5747 5747 5747 5749 5750 5749 5749 5750 5750 5751 5752 5753 5753 5754 5754 5754 5755 5755 5755 5754 5754 5754 5755 5755 5756 5756 5756 5756 5757 5757 5757 5757 5756 5756 5756 5756 5755 5755
5738 5738 5738 5738 5738 5741 5739 5739 5740 5741 5741 5741 5742 5742 5743 5743 5744 5744 5745 5745 5746 5746 5747 5747 5747 5746 5746 5746 5747 5748 5749 5749 5749 5749 5749 5749 5749 5748 5748 5748 5748 5748 5748 5747
5731 5732 5731 5732 5734 5733 5732 5732 5732 5733 5734 5734 5735 5735 5735 5736 5736 5737 5737 5737 5738 5739 5739 5739 5739 5739 5738 5739 5739 5740 5740 5741 5741 5741 5741 5741 5741 5741 5741 5741 5741 5741 5740 5740
5725 5724 5725 5725 5725 5725 5726 5725 5726 5726 5727 5727 5727 5728 5728 5728 5728 5729 5729 5730 5730 5731 5731 5732 5731 5732 5732 5731 5732 5732 5732 5733 5733 5733 5734 5734 5734 5734 5734 5734 5734 5733 5733 5732
5719 5718 5718 5718 5719 5719 5719 5719 5719 5719 5719 5720 5720 5720 5720 5720 5720 5721 5721 5721 5722 5723 5723 5724 5724 5724 5724 5724 5724 5724 5725 5725 5725 5726 5726 5726 5726 5726 5727 5726 5726 5726 5726 5725
5712 5713 5713 5713 5713 5713 5713 5712 5712 5712 5712 5712 5712 5713 5712 5712 5712 5712 5713 5713 5714 5714 5715 5715 5715 5716 5716 5716 5716 5716 5716 5717 5718 5718 5717 5718 5718 5718 5718 5719 5719 5718 5718 5717
Wind_Speed
20 21 21 21 22 22 23 22 21 21 23 24 23 21 20 18 16 14 13 12 10 10 11 11 10 10 9 9 9 7 7 8 9 9 9 9 9 9 9 9 7 6 6 6
19 19 20 21 21 22 22 22 22 21 23 25 24 22 21 19 18 17 15 13 12 11 11 11 11 10 10 9 9 9 9 9 10 10 10 10 10 10 9 9 8 7 7 7
18 18 19 20 21 21 21 21 22 22 24 26 25 24 22 21 19 18 17 15 14 13 12 12 12 12 12 11 10 10 10 10 11 12 11 11 11 10 10 10 9 9 8 8
18 19 19 20 21 22 22 21 22 23 24 26 26 25 22 22 21 20 19 17 15 15 14 14 13 12 12 12 11 12 11 11 12 12 12 11 13 12 11 11 11 11 10 10
19 19 20 20 21 22 22 22 23 24 25 26 26 27 24 23 23 22 21 19 18 17 16 16 15 14 14 14 13 12 12 12 13 13 13 13 13 13 13 13 12 12 12 12
20 20 20 20 22 23 23 24 24 25 25 26 26 28 26 24 23 22 21 20 19 18 18 18 17 16 16 15 15 14 14 14 13 13 14 14 14 14 14 14 14 14 14 14
20 20 20 21 22 22 23 24 24 25 26 26 26 28 27 25 23 22 21 20 20 20 20 20 19 19 17 16 16 15 16 15 15 15 15 14 14 14 14 14 15 15 15 15
20 20 20 21 22 23 24 25 25 26 26 26 26 27 26 26 25 24 23 21 21 21 21 20 20 20 19 17 17 17 17 16 16 17 18 17 15 15 15 16 17 17 16 16
20 21 21 22 23 24 24 25 25 26 27 27 27 27 26 25 25 24 23 22 22 21 21 21 21 20 20 19 19 19 19 18 18 18 19 19 18 18 18 19 19 19 19 19
21 21 21 22 23 24 24 24 25 26 27 27 27 26 26 25 25 24 24 23 23 23 22 22 22 22 22 21 20 21 21 21 20 20 20 20 21 22 21 21 20 20 20 19
22 21 21 22 23 24 25 25 26 27 28 28 28 27 26 25 25 25 24 23 24 23 23 24 24 24 23 23 22 22 22 21 22 22 22 22 22 22 21 21 22 21 21 20
22 23 23 23 24 24 26 27 27 28 28 28 29 28 26 26 25 25 24 24 24 24 24 24 25 25 25 25 25 24 23 23 23 23 24 24 24 24 23 23 23 23 22 21
23 24 24 24 25 25 27 28 28 29 30 29 30 29 27 26 25 24 24 24 25 24 25 26 26 26 26 26 26 27 25 24 24 25 25 25 25 26 25 24 24 23 23 23
22 23 25 25 25 25 27 28 29 30 31 30 30 29 28 27 26 26 26 26 25 24 25 26 25 26 26 27 27 26 26 26 26 26 26 26 26 25 25 25 25 24 23 24
23 23 23 25 25 25 26 28 30 31 31 32 31 30 29 29 28 27 28 27 26 25 25 26 25 25 25 26 26 26 26 27 27 27 27 26 26 25 25 25 25 25 25 25
23 23 24 24 25 27 28 28 29 30 31 32 32 31 30 29 28 28 27 27 26 26 27 28 27 27 27 27 27 27 26 26 26 27 28 27 26 24 24 26 26 26 26 26
24 24 25 25 26 27 28 28 29 30 31 30 29 29 29 28 28 28 27 27 27 27 27 27 27 28 28 28 28 27 27 27 27 27 27 27 26 25 25 25 26 27 27 27
25 25 26 26 26 28 27 28 28 29 30 30 30 30 29 29 28 28 28 28 27 27 26 27 27 27 26 27 27 26 26 27 26 26 26 26 26 25 25 25 25 25 26 27
25 26 26 26 28 28 27 27 28 28 29 29 29 29 29 29 28 27 27 27 26 26 26 26 26 26 26 26 26 26 26 26 26 25 25 26 26 26 25 25 26 25 25 25
25 26 27 27 27 27 27 27 27 28 28 27 27 28 28 29 28 26 27 27 27 27 27 26 25 25 25 25 25 25 25 25 25 24 24 24 25 25 26 26 26 26 25 24
24 25 26 26 27 27 26 26 26 26 26 25 25 26 26 28 28 27 27 27 27 26 25 25 24 24 24 25 24 23 23 22 22 22 22 23 24 25 24 25 26 26 25 24
24 24 25 25 26 25 25 25 26 25 25 25 24 25 25 26 27 27 26 25 25 25 25 24 24 23 24 23 23 23 23 23 22 22 22 23 23 24 24 25 25 25 25 24
23 24 24 24 24 23 23 24 24 24 24 25 24 25 25 26 27 26 25 25 25 25 25 24 23 23 23 24 24 24 24 25 24 23 23 24 24 24 24 24 24 24 24 25
22 23 23 23 23 24 24 24 24 24 24 25 25 25 26 25 25 26 25 25 25 25 25 24 24 24 24 25 26 25 25 25 24 24 24 25 25 24 23 23 23 24 24 25
21 21 22 22 23 23 23 24 24 24 25 25 25 26 26 26 26 26 27 26 26 26 26 25 25 25 26 26 26 26 26 25 25 26 27 26 24 24 24 24 23 24 24 24
21 21 22 22 22 23 23 24 25 24 24 25 26 26 27 27 26 26 26 26 27 27 27 26 25 26 27 26 25 25 25 26 26 26 25 24 24 24 24 24 23 24 24 23
Wind_Direction
241 239 239 238 237 237 239 239 239 241 245 248 251 254 254 254 257 259 261 269 276 286 296 298 296 294 293 294 293 293 302 300 297 297 296 291 292 300 307 307 313 306 305 311
238 234 236 237 237 238 239 239 240 242 244 247 248 252 253 253 253 256 260 265 272 281 288 290 292 293 293 290 289 285 288 293 291 287 285 288 287 294 302 307 307 307 308 305
238 235 237 238 240 240 240 241 241 242 244 249 250 252 253 254 254 257 260 262 266 273 274 279 285 288 287 286 283 285 282 284 286 284 282 281 284 290 292 296 296 295 297 299
235 235 237 238 239 241 241 244 245 245 248 248 250 254 254 256 258 261 262 263 268 270 266 269 275 282 280 279 280 281 281 277 280 278 278 278 282 283 284 287 289 287 288 292
236 238 240 240 240 241 243 244 246 247 249 249 250 255 256 257 261 263 265 265 268 270 267 266 269 276 274 272 273 275 277 279 279 275 275 279 286 281 283 285 285 285 284 287
238 240 243 243 242 243 244 245 246 248 250 251 251 255 259 258 262 264 264 265 265 267 269 268 267 271 274 271 271 272 272 273 272 272 275 277 279 278 281 283 281 281 279 279
240 242 243 244 244 245 247 247 248 250 250 253 254 257 260 263 265 266 265 263 264 264 268 268 267 267 269 269 269 273 270 271 273 273 275 277 275 275 277 280 280 279 277 276
244 245 245 245 246 249 250 250 251 254 254 256 257 260 263 266 266 268 265 263 262 264 265 264 264 263 263 265 266 268 271 272 272 273 274 276 274 273 275 279 280 280 278 276
247 247 248 248 249 250 252 253 253 256 258 260 262 264 265 267 268 268 268 266 263 263 263 263 264 265 265 265 266 267 270 271 273 273 273 274 271 270 273 276 277 278 277 278
249 247 248 250 251 252 253 255 255 257 261 263 264 266 268 269 270 270 270 268 265 263 264 265 263 264 266 266 265 264 267 269 270 271 272 270 268 268 269 272 272 274 276 278
252 251 249 251 252 254 255 255 255 259 263 265 267 268 270 272 271 270 270 267 265 265 267 265 264 264 264 266 266 264 268 269 269 268 271 270 271 270 269 270 272 273 274 275
254 255 254 252 253 253 255 257 258 259 263 265 266 268 270 271 270 269 269 268 267 268 268 266 264 264 266 269 268 268 270 270 270 269 269 269 271 272 270 269 270 271 271 273
254 254 255 255 256 255 256 257 258 260 262 264 267 268 270 270 268 268 268 269 270 269 268 268 266 266 269 271 272 270 270 272 273 270 268 269 272 273 272 269 270 270 271 271
255 254 255 255 257 259 259 259 259 260 262 264 265 267 268 267 266 266 265 267 269 269 268 267 265 266 268 270 271 270 270 272 274 271 269 269 271 272 271 270 269 269 271 273
256 256 256 256 257 259 261 262 262 263 265 266 267 269 269 267 267 265 265 266 267 268 269 266 266 270 273 274 274 274 273 271 271 271 270 272 273 274 270 269 269 270 270 271
257 259 259 258 258 259 260 262 263 264 265 266 267 268 268 268 266 264 265 266 266 268 271 270 271 274 275 275 276 276 276 273 271 272 270 270 272 272 271 270 269 270 270 269
259 261 261 260 262 263 261 263 264 263 263 265 266 267 266 266 268 269 268 269 269 270 270 269 272 274 274 275 276 275 274 273 272 272 270 268 273 273 271 269 268 269 269 267
263 263 265 264 263 264 267 266 265 264 263 264 264 266 266 267 268 269 269 269 269 268 267 271 273 274 273 274 275 273 272 269 269 271 269 268 270 271 271 270 271 271 271 270
264 264 266 266 265 266 268 267 266 264 264 265 266 266 267 267 266 268 270 270 270 269 269 271 273 274 274 273 272 273 272 270 271 272 270 269 268 267 268 268 270 270 273 272
267 266 267 267 267 268 270 268 266 265 265 267 268 267 266 266 267 267 267 269 269 269 270 271 272 274 272 270 270 272 273 271 272 273 272 270 269 269 269 269 268 269 272 272
268 267 266 268 269 271 272 270 268 267 268 268 268 267 266 267 268 267 264 266 268 268 269 270 271 273 270 268 268 271 272 271 271 270 271 272 271 273 273 271 270 270 271 270
266 266 266 268 269 271 271 270 268 268 267 267 267 268 268 266 267 266 263 263 266 266 268 269 270 271 269 268 269 270 270 270 270 270 271 272 273 274 274 275 275 273 271 269
268 266 267 268 268 269 270 271 269 268 268 268 268 269 267 266 265 266 264 260 263 266 267 269 269 268 267 267 269 269 270 271 271 271 271 272 273 274 275 277 278 276 273 273
271 268 266 265 265 267 270 270 270 270 269 267 267 269 267 267 265 265 263 259 260 263 264 266 267 267 268 268 268 269 270 269 269 269 271 272 272 274 275 276 276 277 277 275
272 271 269 269 268 269 271 272 271 271 270 268 268 270 270 271 268 266 262 259 259 260 261 264 265 265 267 268 267 268 268 268 267 269 273 272 270 271 273 275 275 276 278 277
270 272 274 273 273 272 272 271 269 270 269 268 270 270 270 271 271 270 266 261 260 259 259 261 263 263 263 264 265 265 265 267 267 269 268 268 269 271 271 272 273 275 277 278